Regional Weather Roundup
Issued by NWS Green Bay, WI

Home | Current Version | Previous Version | Graphics & Text | Print | Product List | Glossary Off
Versions: 1 2 3 4 5 6 7 8 9 10 11 12 13 14 15 16 17 18 19 20 21 22 23 24 25 26 27 28 29 30 31 32 33 34 35 36 37 38 39 40 41 42 43 44 45 46 47 48 49 50

011
ASUS43 KGRB 241200
RWRGRB

NORTH-CENTRAL AND NORTHEAST WISCONSIN REGIONAL WEATHER ROUNDUP
NATIONAL WEATHER SERVICE GREEN BAY WI
700 AM CDT SAT JUN 24 2017

WIZ005-009-010>012-018-019-241300-
NORTH CENTRAL WISCONSIN

CITY           SKY/WX    TMP DP  RH WIND       PRES   REMARKS
IRONWOOD       CLOUDY    53  51  93 W9        29.87R
MANITOWISH WTR NOT AVBL
ARBOR VITAE    NOT AVBL
EAGLE RIVER    NOT AVBL
LAND O LAKES   LGT RAIN  54  52  91 W6        29.87R
RHINELANDER    CLOUDY    55  51  86 W9        29.87S
PHILLIPS       NOT AVBL
ANTIGO         NOT AVBL
TOMAHAWK       NOT AVBL
MERRILL        CLOUDY    55  52  89 NW10      29.88S
$$

WIZ013-073-241300-
NORTHEAST WISCONSIN

CITY           SKY/WX    TMP DP  RH WIND       PRES   REMARKS
IRON MOUNTAIN  CLOUDY    55  50  83 W3        29.82S
MARINETTE      PTSUNNY   57  53  86 VRB3      29.83R
$$

WIZ017-030-035>037-045-241300-
CENTRAL WISCONSIN

CITY           SKY/WX    TMP DP  RH WIND       PRES   REMARKS
MEDFORD        NOT AVBL
WAUSAU         MOSUNNY   57  51  80 W12       29.88R
MOSINEE        MOSUNNY   54  52  94 W10       29.91R
MARSHFIELD     MOSUNNY   53  49  86 W9        29.91R
WISC RAPIDS    MOSUNNY   57  51  80 NW8       29.93R
STEVENS POINT  NOT AVBL
WAUPACA        MOSUNNY   61  55  81 W8        29.89R
SHAWANO        NOT AVBL
CLINTONVILLE   NOT AVBL
WAUTOMA        CLOUDY    58  51  78 NW9       29.91R
$$

WIZ038-039-048-051-241300-
FOX VALLEY

CITY           SKY/WX    TMP DP  RH WIND       PRES   REMARKS
NWS GREEN BAY  CLOUDY    60  56  86 NW9       29.85R
APPLETON       PTSUNNY   59  52  77 W12       29.85S
OSHKOSH        PTSUNNY   60  54  80 W10G20    29.86S
FOND DU LAC    PTSUNNY   60  53  77 W7        29.89R
$$

WIZ022-050-052-241300-
EAST CENTRAL WISCONSIN

CITY           SKY/WX    TMP DP  RH WIND       PRES   REMARKS
EPHRAIM        NOT AVBL
WASHINGTON ISL NOT AVBL
STURGEON BAY     N/A     60  54  80 NW10        N/A
MANITOWOC      NOT AVBL
SHEBOYGAN      CLOUDY    61  56  83 NW10      29.86R
$$

LMZ563-521-522-541>543-241300-
LAKESHORE

STATION/POSITION TIME  TEMP    WIND        PRES    VSBY  WAVE
                       AIR SEA DIR/SP/G                  HT/PER
                 (UTC) (F)     (DEG/KT/KT) (MB)    (MI)  (FT/S)
SHEBOYGAN LKSHOR 1100   61     290/ 15/ 21 1010.1R
KEWAUNEE LKSHORE 1130   59     300/  8/ 11 1009.9R
NORTHPORT PIER   1140   60     310/ 10/ 14 1009.5R
N MID LAKE BUOY  1050   58 56  290/  8/ 10 1009.4R         1/ 3
S GREEN BAY BUOY 1130   60     280/ 16/ 17 1009.9R
CHAMBERS ISLAND  1140   58     300/  6/ 13 1009.1S
MENOMINEE LKSHOR 1124          280/  4/  9 1008.9
$$




USA.gov is the U.S. government's official web portal to all federal, state and local government web resources and services.